Location: Steilacoom
(47.1700°N, 122.5700°W)
Time: 10:00:09
(UTC-07:00)

OTV 5 (USA 277) - Visible Passes

Search period start: 19 August 2018 00:00
Search period end: 29 August 2018 00:00
Orbit: 316 x 318 km, 54.5° (Epoch: 18 August)

Date Brightness Start Highest point End Pass type
(mag) Time Alt. Az. Time Alt. Az. Time Alt. Az.
19 Aug ? 21:21:30 10° SW 21:24:10 61° SE 21:26:52 10° ENE visible
19 Aug ? 22:56:21 10° WNW 22:58:15 23° NNW 22:58:15 23° NNW visible
20 Aug ? 21:36:04 10° WSW 21:38:45 56° NNW 21:41:27 10° NE visible
20 Aug ? 23:11:27 10° WNW 23:12:46 17° NNW 23:12:46 17° NNW visible
21 Aug ? 21:50:59 10° W 21:53:27 30° NNW 21:55:56 10° NE visible
21 Aug ? 23:26:26 10° NW 23:26:58 13° NW 23:26:58 13° NW visible
22 Aug ? 22:06:03 10° WNW 22:08:14 21° NNW 22:10:09 12° NE visible
23 Aug ? 20:45:38 10° W 20:48:14 39° NNW 20:50:50 10° NE visible
23 Aug ? 22:21:07 10° NW 22:23:05 18° N 22:24:07 15° NNE visible
24 Aug ? 21:00:39 10° WNW 21:02:59 24° NNW 21:05:19 10° NE visible
24 Aug ? 22:36:01 10° NW 22:37:57 17° N 22:37:59 17° N visible
25 Aug ? 21:15:45 10° WNW 21:17:47 19° N 21:19:51 10° NE visible
25 Aug ? 22:50:41 10° NW 22:51:50 17° NNW 22:51:50 17° NNW visible
26 Aug ? 21:30:45 10° NW 21:32:39 17° N 21:34:35 10° NE visible
26 Aug ? 23:05:11 10° NW 23:05:40 13° NW 23:05:40 13° NW visible
27 Aug ? 21:45:31 10° NW 21:47:32 18° N 21:48:37 15° NE visible
28 Aug ? 20:25:25 10° NW 20:27:23 18° N 20:29:20 10° NE visible
28 Aug ? 22:00:06 10° NW 22:02:22 23° NNE 22:02:27 23° NNE visible
